N17AC ELLX-EHAM

Flight info

Callsign N17AC
Flight time 0h 37m
Altitude 22000
Route DIK5T DIK N852 TERLA L608 BUB Y28 HELEN HELE2A
Aircraft C700/L-DGV/S

Departure

Time 2026-04-28 18:33
Airport Luxembourg-Findel International Airport (ELLX)

Arrival

Time 2026-04-28 19:11
Airport Amsterdam Airport Schiphol (EHAM)
Time Latitude Longitude Altitude Speed Heading
2026-04-28 18:20 49.62937 6.20880 1212 ft 0 kts 64°
2026-04-28 18:30 49.62941 6.20899 1212 ft 4 kts 78°
2026-04-28 18:31 49.62921 6.20949 1212 ft 7 kts 148°
2026-04-28 18:31 49.62866 6.20955 1212 ft 10 kts 221°
2026-04-28 18:31 49.62832 6.20854 1212 ft 11 kts 243°
2026-04-28 18:31 49.62781 6.20748 1212 ft 14 kts 225°
2026-04-28 18:32 49.62704 6.20636 1212 ft 17 kts 223°
2026-04-28 18:32 49.62635 6.20530 1213 ft 12 kts 229°
2026-04-28 18:32 49.62556 6.20466 1213 ft 15 kts 169°
2026-04-28 18:32 49.62464 6.20554 1213 ft 17 kts 137°
2026-04-28 18:33 49.62497 6.20757 1213 ft 41 kts 59°
2026-04-28 18:33 49.62797 6.21564 1218 ft 132 kts 60°
2026-04-28 18:33 49.63340 6.23052 1616 ft 181 kts 64°
2026-04-28 18:33 49.63894 6.24823 2182 ft 188 kts 64°
2026-04-28 18:34 49.64621 6.26574 2433 ft 201 kts 56°
2026-04-28 18:34 49.65391 6.28400 2726 ft 207 kts 61°
2026-04-28 18:34 49.66127 6.30455 3160 ft 223 kts 62°
2026-04-28 18:34 49.66920 6.32622 3912 ft 247 kts 61°
2026-04-28 18:35 49.67781 6.34931 4695 ft 253 kts 60°
2026-04-28 18:35 49.68763 6.37272 5457 ft 263 kts 46°
2026-04-28 18:35 49.70352 6.38569 6217 ft 264 kts
2026-04-28 18:35 49.72147 6.38148 6952 ft 266 kts 333°
2026-04-28 18:36 49.73505 6.36232 7687 ft 267 kts 306°
2026-04-28 18:36 49.74542 6.33832 8456 ft 269 kts 303°
2026-04-28 18:36 49.75694 6.31577 9227 ft 273 kts 311°
2026-04-28 18:36 49.77054 6.29496 10023 ft 279 kts 315°
2026-04-28 18:37 49.78528 6.27297 10761 ft 306 kts 313°
2026-04-28 18:37 49.80011 6.24933 11516 ft 310 kts 312°
2026-04-28 18:37 49.81527 6.22495 12291 ft 317 kts 312°
2026-04-28 18:37 49.83077 6.20045 13080 ft 318 kts 312°
2026-04-28 18:38 49.84634 6.17590 13890 ft 321 kts 311°
2026-04-28 18:38 49.86253 6.15010 14627 ft 347 kts 311°
2026-04-28 18:38 49.88005 6.12218 15378 ft 371 kts 312°
2026-04-28 18:38 49.89830 6.09323 16162 ft 380 kts 312°
2026-04-28 18:39 49.91696 6.06359 16947 ft 386 kts 312°
2026-04-28 18:39 49.93579 6.03357 17756 ft 390 kts 312°
2026-04-28 18:39 49.95471 6.00333 18558 ft 392 kts 311°
2026-04-28 18:39 49.97383 5.97275 19278 ft 396 kts 311°
2026-04-28 18:40 49.99310 5.94196 20018 ft 398 kts 311°
2026-04-28 18:40 50.01246 5.91094 20768 ft 402 kts 311°
2026-04-28 18:40 50.03208 5.87942 21546 ft 407 kts 311°
2026-04-28 18:40 50.05197 5.84747 22033 ft 417 kts 311°
2026-04-28 18:41 50.07201 5.81527 22038 ft 409 kts 311°
2026-04-28 18:41 50.09176 5.78355 22041 ft 409 kts 310°
2026-04-28 18:41 50.11155 5.75153 22042 ft 411 kts 310°
2026-04-28 18:41 50.13110 5.71998 22046 ft 409 kts 310°
2026-04-28 18:42 50.15082 5.68814 22048 ft 408 kts 310°
2026-04-28 18:42 50.17052 5.65625 22047 ft 408 kts 310°
2026-04-28 18:42 50.19026 5.62422 22057 ft 409 kts 310°
2026-04-28 18:42 50.20997 5.59225 22134 ft 409 kts 310°
2026-04-28 18:43 50.22975 5.56011 22142 ft 411 kts 310°
2026-04-28 18:43 50.24951 5.52798 22145 ft 409 kts 310°
2026-04-28 18:43 50.26921 5.49592 22146 ft 408 kts 310°
2026-04-28 18:43 50.28889 5.46380 22148 ft 408 kts 310°
2026-04-28 18:44 50.30825 5.43217 22153 ft 407 kts 310°
2026-04-28 18:44 50.34745 5.36806 22156 ft 408 kts 310°
2026-04-28 18:44 50.36702 5.33596 22154 ft 408 kts 310°
2026-04-28 18:45 50.38664 5.30375 22162 ft 408 kts 310°
2026-04-28 18:45 50.40618 5.27165 22160 ft 408 kts 310°
2026-04-28 18:45 50.42577 5.23941 22161 ft 408 kts 310°
2026-04-28 18:45 50.44533 5.20717 22162 ft 408 kts 309°
2026-04-28 18:46 50.46491 5.17488 22162 ft 409 kts 309°
2026-04-28 18:46 50.48447 5.14255 22165 ft 409 kts 309°
2026-04-28 18:46 50.50411 5.11008 22160 ft 409 kts 310°
2026-04-28 18:46 50.52368 5.07768 22168 ft 407 kts 309°
2026-04-28 18:47 50.54294 5.04574 22165 ft 406 kts 309°
2026-04-28 18:47 50.56235 5.01351 22164 ft 406 kts 309°
2026-04-28 18:47 50.58182 4.98111 22166 ft 408 kts 309°
2026-04-28 18:47 50.60137 4.94858 22168 ft 408 kts 310°
2026-04-28 18:48 50.62084 4.91614 22168 ft 407 kts 310°
2026-04-28 18:48 50.64025 4.88376 22168 ft 405 kts 310°
2026-04-28 18:48 50.65958 4.85142 22169 ft 406 kts 310°
2026-04-28 18:48 50.67897 4.81899 22175 ft 407 kts 310°
2026-04-28 18:49 50.69843 4.78636 22177 ft 408 kts 310°
2026-04-28 18:49 50.70478 4.77572 22179 ft 409 kts 310°
2026-04-28 18:49 50.73713 4.72141 22184 ft 408 kts 310°
2026-04-28 18:49 50.75654 4.68878 22186 ft 407 kts 310°
2026-04-28 18:50 50.77589 4.65618 22189 ft 406 kts 310°
2026-04-28 18:50 50.79525 4.62352 22183 ft 408 kts 310°
2026-04-28 18:50 50.81467 4.59072 22195 ft 409 kts 310°
2026-04-28 18:50 50.83414 4.55783 22188 ft 410 kts 310°
2026-04-28 18:51 50.85362 4.52485 22194 ft 410 kts 310°
2026-04-28 18:51 50.87306 4.49189 22198 ft 409 kts 310°
2026-04-28 18:51 50.89243 4.45900 22190 ft 408 kts 310°
2026-04-28 18:51 50.91180 4.42609 22191 ft 407 kts 310°
2026-04-28 18:52 50.93118 4.39309 22189 ft 409 kts 310°
2026-04-28 18:52 50.95037 4.36038 22196 ft 411 kts 310°
2026-04-28 18:52 50.96987 4.32715 22192 ft 410 kts 310°
2026-04-28 18:52 50.98928 4.29396 21920 ft 410 kts 310°
2026-04-28 18:53 51.00841 4.26128 21476 ft 396 kts 310°
2026-04-28 18:53 51.02687 4.22969 21034 ft 385 kts 310°
2026-04-28 18:53 51.04500 4.19852 20602 ft 383 kts 310°
2026-04-28 18:53 51.06314 4.16733 20208 ft 384 kts 310°
2026-04-28 18:54 51.08113 4.13644 20189 ft 381 kts 310°
2026-04-28 18:54 51.09926 4.10521 20188 ft 386 kts 310°
2026-04-28 18:54 51.11747 4.07383 20194 ft 384 kts 310°
2026-04-28 18:54 51.13564 4.04280 20187 ft 384 kts 312°
2026-04-28 18:55 51.15810 4.01951 20170 ft 395 kts 335°
2026-04-28 18:55 51.17588 4.01258 20174 ft 401 kts 348°
2026-04-28 18:55 51.21311 4.01450 20177 ft 407 kts
2026-04-28 18:55 51.24128 4.02036 20186 ft 408 kts
2026-04-28 18:56 51.26939 4.02569 20195 ft 407 kts
2026-04-28 18:56 51.29764 4.02978 20092 ft 410 kts
2026-04-28 18:56 51.32596 4.03407 19705 ft 406 kts
2026-04-28 18:56 51.35371 4.03897 19320 ft 398 kts
2026-04-28 18:57 51.38111 4.04368 18938 ft 395 kts
2026-04-28 18:57 51.40850 4.04807 18560 ft 394 kts
2026-04-28 18:57 51.43577 4.05250 18141 ft 394 kts
2026-04-28 18:57 51.46297 4.05709 17708 ft 391 kts
2026-04-28 18:58 51.48991 4.06161 17286 ft 388 kts
2026-04-28 18:58 51.51672 4.06595 16869 ft 385 kts
2026-04-28 18:58 51.54326 4.07026 16455 ft 382 kts
2026-04-28 18:58 51.56963 4.07448 16052 ft 379 kts
2026-04-28 18:59 51.59578 4.07859 15650 ft 376 kts
2026-04-28 18:59 51.62147 4.08249 15258 ft 374 kts
2026-04-28 18:59 51.64666 4.09202 14843 ft 375 kts 23°
2026-04-28 18:59 51.66740 4.11637 14434 ft 362 kts 43°
2026-04-28 19:00 51.68389 4.14545 14038 ft 343 kts 48°
2026-04-28 19:00 51.69926 4.17388 13613 ft 332 kts 46°
2026-04-28 19:00 51.71585 4.19941 13178 ft 329 kts 38°
2026-04-28 19:00 51.73410 4.22182 12769 ft 329 kts 34°
2026-04-28 19:01 51.75174 4.24363 12354 ft 317 kts 38°
2026-04-28 19:01 51.76825 4.26631 11941 ft 306 kts 39°
2026-04-28 19:01 51.78420 4.28838 11524 ft 297 kts 38°
2026-04-28 19:01 51.80000 4.30935 11114 ft 291 kts 38°
2026-04-28 19:02 51.81572 4.33002 10713 ft 291 kts 38°
2026-04-28 19:02 51.83152 4.35048 10318 ft 292 kts 37°
2026-04-28 19:02 51.84743 4.37091 9907 ft 292 kts 37°
2026-04-28 19:02 51.86329 4.39127 9477 ft 290 kts 37°
2026-04-28 19:03 51.87901 4.41138 8964 ft 285 kts 40°
2026-04-28 19:03 51.89459 4.43020 8557 ft 275 kts 38°
2026-04-28 19:03 51.90995 4.44785 8150 ft 266 kts 37°
2026-04-28 19:03 51.92498 4.46489 7740 ft 261 kts 37°
2026-04-28 19:04 51.93978 4.48162 7337 ft 260 kts 37°
2026-04-28 19:04 51.95420 4.49791 7239 ft 253 kts 37°
2026-04-28 19:04 51.96881 4.51442 7241 ft 260 kts 37°
2026-04-28 19:04 51.98367 4.53125 7239 ft 263 kts 37°
2026-04-28 19:05 51.99869 4.54833 7238 ft 264 kts 37°
2026-04-28 19:05 52.01370 4.56536 7239 ft 263 kts 37°
2026-04-28 19:05 52.02871 4.58243 7235 ft 263 kts 37°
2026-04-28 19:05 52.04367 4.59953 7242 ft 263 kts 37°
2026-04-28 19:06 52.05860 4.61662 7243 ft 263 kts 37°
2026-04-28 19:06 52.06863 4.62813 7018 ft 269 kts 37°
2026-04-28 19:06 52.08879 4.65126 6461 ft 261 kts 37°
2026-04-28 19:06 52.10355 4.66815 6025 ft 256 kts 37°
2026-04-28 19:07 52.11775 4.68433 5611 ft 252 kts 37°
2026-04-28 19:07 52.13207 4.70046 5181 ft 249 kts 37°
2026-04-28 19:07 52.14628 4.71634 4745 ft 246 kts 38°
2026-04-28 19:07 52.16033 4.73180 4304 ft 237 kts 38°
2026-04-28 19:08 52.17366 4.74603 3864 ft 221 kts 38°
2026-04-28 19:08 52.18632 4.75893 3427 ft 210 kts 38°
2026-04-28 19:08 52.19910 4.76957 2970 ft 209 kts 22°
2026-04-28 19:08 52.21377 4.77052 2515 ft 205 kts
2026-04-28 19:09 52.22699 4.76998 1865 ft 185 kts
2026-04-28 19:09 52.23928 4.76939 1394 ft 162 kts
2026-04-28 19:09 52.25061 4.76966 1202 ft 169 kts
2026-04-28 19:09 52.26037 4.77011 1031 ft 130 kts 12°
2026-04-28 19:10 52.26895 4.77050 747 ft 119 kts 11°
2026-04-28 19:10 52.27757 4.77149 455 ft 130 kts 11°
2026-04-28 19:10 52.28640 4.77286 409 ft 128 kts
2026-04-28 19:10 52.29520 4.77690 268 ft 132 kts 30°
2026-04-28 19:11 52.29991 4.78263 60 ft 117 kts 43°
2026-04-28 19:11 52.30509 4.79023 -14 ft 83 kts 43°
2026-04-28 19:11 52.30806 4.79448 -12 ft 42 kts 42°
2026-04-28 19:11 52.30878 4.79603 -14 ft 11 kts 80°
2026-04-28 19:12 52.30874 4.79689 -15 ft 0 kts 110°
2026-04-28 19:12 52.30849 4.79723 -12 ft 15 kts 139°
2026-04-28 19:12 52.30859 4.79867 -12 ft 14 kts 51°
2026-04-28 19:12 52.30934 4.79981 -12 ft 16 kts 40°
2026-04-28 19:13 52.31029 4.80116 -12 ft 19 kts 41°
2026-04-28 19:13 52.31050 4.80245 -12 ft 13 kts 118°
2026-04-28 19:13 52.30987 4.80369 -12 ft 14 kts 130°
2026-04-28 19:13 52.30984 4.80503 -12 ft 14 kts 48°
2026-04-28 19:14 52.31018 4.80553 -12 ft 3 kts 41°
2026-04-28 19:14 52.31053 4.80545 -12 ft 8 kts 312°
2026-04-28 19:14 52.31078 4.80498 -12 ft 0 kts 311°
2026-04-28 19:14 52.31079 4.80496 -12 ft 0 kts 311°